Location: Grand Lay
(47.3253°N, 0.9468°E)
Time: 20:23:53
(UTC+00:00)

Gbstr 26 Del rocket - Pass Details

Date: 18 April 2026
Orbit: 490 x 1216 km, 51.8° (Epoch: 13 May)

Event Time Altitude Azimuth Distance (km) Brightness Sun altitude
Exits shadow 00:43:09 11° 63° (ENE) 1,655 5.7 -30.9°
Drops below altitude 10° 00:43:11 10° 63° (ENE) 1,671 5.7 -30.9°
Sets 00:45:24 0° 69° (ENE) 2,566 6.7 -30.9°
